When you browse on this site, cookies collect data to enhance your experience and personalize the content and advertising you see.
Visit our Privacy Policy to learn more. By continuing to use the site, you agree to this use of cookies and data.
  • In Deutschland
  • Länderverzeichnis
  • Für 7 Tage
  • Wassertemperatur
  • Satellitenkarten
  • Wetterkarte
  • Widgets
  • user-avatar
    Anmelden

    Stündliche Wetter Omegna

    Heute, 12 Dezember, Mittwoch

    Zeit Temperatur Niederschläge Wind Luftdruck Luftfeuchtigkeit
    00:00 +1°C° 0 mm 2 m/S 735 mmHg 40%
    01:00 +1°C° 0 mm 2 m/S 735 mmHg 38%
    02:00 -1°C° 0 mm 2 m/S 734 mmHg 37%
    03:00 -1°C° 0 mm 2 m/S 734 mmHg 36%
    04:00 -1°C° 0 mm 2 m/S 734 mmHg 35%
    05:00 -1°C° 0 mm 2 m/S 734 mmHg 34%
    06:00 -1°C° 0 mm 2 m/S 734 mmHg 33%
    07:00 -1°C° 0 mm 2 m/S 734 mmHg 38%
    08:00 +2°C° 0 mm 1 m/S 734 mmHg 37%
    09:00 +3°C° 0 mm 1 m/S 734 mmHg 36%
    10:00 +4°C° 0 mm 1 m/S 734 mmHg 35%
    11:00 +5°C° 0 mm 1 m/S 733 mmHg 34%
    12:00 +6°C° 0 mm 1 m/S 733 mmHg 33%
    13:00 +6°C° 0 mm 0 m/S 733 mmHg 32%
    14:00 +5°C° 0 mm 0 m/S 733 mmHg 37%
    15:00 +4°C° 0 mm 0 m/S 732 mmHg 41%
    16:00 +3°C° 0 mm 0 m/S 732 mmHg 45%
    17:00 +3°C° 0 mm 1 m/S 732 mmHg 45%
    18:00 +2°C° 0 mm 1 m/S 732 mmHg 45%
    19:00 +1°C° 0 mm 1 m/S 732 mmHg 45%
    20:00 +1°C° 0 mm 1 m/S 732 mmHg 45%
    21:00 +1°C° 0 mm 1 m/S 732 mmHg 46%
    22:00 0°C° 0 mm 1 m/S 732 mmHg 46%
    23:00 0°C° 0 mm 1 m/S 732 mmHg 47%

    Morgen, 13 Dezember, Donnerstag

    Zeit Temperatur Niederschläge Wind Luftdruck Luftfeuchtigkeit
    00:00 0°C° 0 mm 1 m/S 732 mmHg 48%
    01:00 0°C° 0 mm 1 m/S 732 mmHg 48%
    02:00 0°C° 0 mm 1 m/S 732 mmHg 50%
    03:00 0°C° 0 mm 1 m/S 732 mmHg 52%
    04:00 0°C° 0 mm 1 m/S 731 mmHg 54%
    05:00 -3°C° 0 mm 2 m/S 731 mmHg 56%
    06:00 -3°C° 0 mm 2 m/S 731 mmHg 58%
    07:00 -3°C° 0 mm 2 m/S 731 mmHg 60%
    08:00 -2°C° 0 mm 2 m/S 731 mmHg 60%
    09:00 -1°C° 0 mm 2 m/S 730 mmHg 59%
    10:00 +2°C° 0 mm 1 m/S 730 mmHg 59%
    11:00 +3°C° 0 mm 1 m/S 730 mmHg 59%
    12:00 +4°C° 0 mm 1 m/S 729 mmHg 59%
    13:00 +5°C° 0 mm 1 m/S 729 mmHg 59%
    14:00 +4°C° 0 mm 1 m/S 729 mmHg 63%
    15:00 +3°C° 0 mm 1 m/S 729 mmHg 66%
    16:00 +3°C° 0 mm 1 m/S 729 mmHg 70%
    17:00 +2°C° 0 mm 1 m/S 729 mmHg 72%
    18:00 +1°C° 0 mm 1 m/S 729 mmHg 74%
    19:00 0°C° 0 mm 1 m/S 730 mmHg 77%
    20:00 0°C° 0 mm 1 m/S 730 mmHg 76%
    21:00 0°C° 0 mm 1 m/S 730 mmHg 76%
    22:00 0°C° 0 mm 1 m/S 730 mmHg 75%
    23:00 0°C° 0 mm 1 m/S 730 mmHg 74%

    übermorgen, 14 Dezember, Freitag

    Zeit Temperatur Niederschläge Wind Luftdruck Luftfeuchtigkeit
    00:00 0°C° 0 mm 1 m/S 730 mmHg 72%
    01:00 0°C° 0 mm 1 m/S 731 mmHg 71%
    02:00 0°C° 0 mm 1 m/S 730 mmHg 70%
    03:00 0°C° 0 mm 1 m/S 730 mmHg 69%
    04:00 0°C° 0 mm 1 m/S 730 mmHg 69%
    05:00 0°C° 0 mm 1 m/S 730 mmHg 69%
    06:00 0°C° 0 mm 1 m/S 730 mmHg 68%
    07:00 0°C° 0 mm 1 m/S 730 mmHg 68%
    08:00 +1°C° 0 mm 1 m/S 731 mmHg 65%
    09:00 +2°C° 0 mm 1 m/S 731 mmHg 63%
    10:00 +2°C° 0 mm 0 m/S 731 mmHg 61%
    11:00 +3°C° 0 mm 0 m/S 731 mmHg 60%
    12:00 +5°C° 0 mm 1 m/S 731 mmHg 59%
    13:00 +6°C° 0 mm 1 m/S 730 mmHg 58%
    14:00 +5°C° 0 mm 1 m/S 730 mmHg 62%
    15:00 +4°C° 0 mm 1 m/S 731 mmHg 66%
    16:00 +4°C° 0 mm 1 m/S 731 mmHg 71%
    17:00 +3°C° 0 mm 1 m/S 731 mmHg 72%
    18:00 +2°C° 0 mm 1 m/S 732 mmHg 73%
    19:00 +2°C° 0 mm 1 m/S 732 mmHg 74%
    20:00 +1°C° 0 mm 1 m/S 732 mmHg 72%
    21:00 +1°C° 0 mm 1 m/S 733 mmHg 71%
    22:00 +1°C° 0 mm 1 m/S 733 mmHg 69%
    23:00 +1°C° 0 mm 1 m/S 733 mmHg 67%

    15 Dezember, Samstag

    Zeit Temperatur Niederschläge Wind Luftdruck Luftfeuchtigkeit
    00:00 +1°C° 0 mm 1 m/S 733 mmHg 65%
    01:00 +1°C° 0 mm 1 m/S 734 mmHg 63%
    02:00 +1°C° 0 mm 1 m/S 734 mmHg 61%
    03:00 +1°C° 0 mm 1 m/S 734 mmHg 60%
    04:00 0°C° 0 mm 1 m/S 734 mmHg 59%
    05:00 0°C° 0 mm 1 m/S 734 mmHg 58%
    06:00 0°C° 0 mm 1 m/S 734 mmHg 58%
    07:00 0°C° 0 mm 1 m/S 734 mmHg 57%
    08:00 +1°C° 0 mm 1 m/S 734 mmHg 54%
    09:00 +2°C° 0 mm 1 m/S 734 mmHg 52%
    10:00 +3°C° 0 mm 1 m/S 735 mmHg 50%
    11:00 +4°C° 0 mm 1 m/S 734 mmHg 49%
    12:00 +5°C° 0 mm 1 m/S 734 mmHg 49%
    13:00 +6°C° 0 mm 1 m/S 733 mmHg 48%
    14:00 +5°C° 0 mm 1 m/S 733 mmHg 52%
    15:00 +4°C° 0 mm 1 m/S 733 mmHg 56%
    16:00 +3°C° 0 mm 1 m/S 733 mmHg 60%
    17:00 +3°C° 0 mm 1 m/S 734 mmHg 58%
    18:00 +3°C° 0 mm 1 m/S 734 mmHg 56%
    19:00 +2°C° 0 mm 1 m/S 734 mmHg 54%
    20:00 +2°C° 0 mm 1 m/S 734 mmHg 55%
    21:00 +3°C° 0 mm 1 m/S 734 mmHg 55%
    22:00 +3°C° 0 mm 1 m/S 734 mmHg 56%
    23:00 +3°C° 0.2 mm 1 m/S 733 mmHg 59%

    16 Dezember, Sonntag

    Zeit Temperatur Niederschläge Wind Luftdruck Luftfeuchtigkeit
    00:00 +3°C° 0.2 mm 1 m/S 733 mmHg 62%
    01:00 +3°C° 0.2 mm 1 m/S 733 mmHg 65%
    02:00 +4°C° 0.5 mm 1 m/S 732 mmHg 66%
    03:00 +4°C° 0.5 mm 1 m/S 732 mmHg 66%
    04:00 +4°C° 0.5 mm 1 m/S 732 mmHg 66%
    05:00 +4°C° 0.6 mm 1 m/S 732 mmHg 66%
    06:00 +4°C° 0.6 mm 1 m/S 731 mmHg 65%
    07:00 +4°C° 0.6 mm 1 m/S 731 mmHg 64%
    08:00 +5°C° 0.5 mm 1 m/S 731 mmHg 62%
    09:00 +5°C° 0.5 mm 1 m/S 731 mmHg 60%
    10:00 +6°C° 0.5 mm 1 m/S 731 mmHg 57%
    11:00 +6°C° 0.3 mm 1 m/S 731 mmHg 56%
    12:00 +7°C° 0.3 mm 1 m/S 731 mmHg 55%
    13:00 +8°C° 0.3 mm 1 m/S 730 mmHg 54%
    14:00 +7°C° 0.6 mm 1 m/S 730 mmHg 59%
    15:00 +6°C° 0.6 mm 1 m/S 730 mmHg 63%
    16:00 +6°C° 0.6 mm 1 m/S 730 mmHg 68%
    17:00 +5°C° 1 mm 1 m/S 730 mmHg 75%
    18:00 +5°C° 1 mm 1 m/S 731 mmHg 82%
    19:00 +5°C° 1 mm 1 m/S 731 mmHg 88%
    20:00 +5°C° 0.5 mm 1 m/S 731 mmHg 90%
    21:00 +5°C° 0.5 mm 1 m/S 731 mmHg 92%
    22:00 +5°C° 0.5 mm 1 m/S 732 mmHg 93%
    23:00 +4°C° 0 mm 1 m/S 732 mmHg 93%

    17 Dezember, Montag

    Zeit Temperatur Niederschläge Wind Luftdruck Luftfeuchtigkeit
    00:00 +3°C° 0 mm 1 m/S 732 mmHg 93%
    01:00 +3°C° 0 mm 1 m/S 732 mmHg 93%
    02:00 +3°C° 0 mm 1 m/S 733 mmHg 92%
    03:00 +3°C° 0 mm 1 m/S 733 mmHg 92%
    04:00 +2°C° 0 mm 1 m/S 733 mmHg 91%
    05:00 +2°C° 0 mm 1 m/S 733 mmHg 90%
    06:00 +2°C° 0 mm 1 m/S 733 mmHg 89%
    07:00 +2°C° 0 mm 1 m/S 733 mmHg 89%
    08:00 +3°C° 0 mm 1 m/S 733 mmHg 87%
    09:00 +4°C° 0 mm 1 m/S 734 mmHg 86%
    10:00 +5°C° 0 mm 1 m/S 734 mmHg 84%
    11:00 +6°C° 0.2 mm 1 m/S 734 mmHg 83%
    12:00 +6°C° 0.2 mm 1 m/S 734 mmHg 82%
    13:00 +7°C° 0.2 mm 1 m/S 733 mmHg 81%
    14:00 +6°C° 0.1 mm 1 m/S 734 mmHg 82%
    15:00 +6°C° 0.1 mm 1 m/S 734 mmHg 84%
    16:00 +5°C° 0.1 mm 1 m/S 734 mmHg 86%
    17:00 +3°C° 0 mm 2 m/S 735 mmHg 86%
    18:00 +2°C° 0 mm 2 m/S 735 mmHg 85%
    19:00 +2°C° 0 mm 2 m/S 736 mmHg 84%
    20:00 +1°C° 0 mm 2 m/S 736 mmHg 81%
    21:00 +1°C° 0 mm 2 m/S 737 mmHg 78%
    22:00 +1°C° 0 mm 2 m/S 738 mmHg 75%
    23:00 +1°C° 0 mm 2 m/S 738 mmHg 73%
    Mehr zeigen